Theta_e
315 315 315 315 314 314 314 314 314 313 312 312 312 312 312 312 312 312 312 312 313 313 314 313 314 314 310 304 306 320 330 325 312 311 311 309 299 296 292 295 297 296 299 303 305 306 306
315 315 315 314 315 315 314 314 313 312 312 312 311 311 311 312 312 312 311 312 312 312 313 314 314 314 307 296 313 319 316 313 313 310 311 308 302 302 297 296 294 298 299 299 301 302 303
314 315 314 315 315 315 314 313 312 312 312 312 311 312 312 312 311 312 312 311 312 312 313 314 314 312 304 301 314 315 313 310 313 314 307 307 307 302 301 296 300 299 295 298 299 299 298
315 314 314 314 315 315 313 312 312 311 312 312 312 311 312 312 312 312 313 314 313 314 314 315 314 309 301 312 311 308 312 312 313 312 309 309 308 302 298 300 299 294 293 288 295 299 301
314 314 314 314 314 314 313 312 311 311 311 312 312 312 311 312 313 313 313 313 314 317 317 315 308 305 302 314 307 309 309 309 311 311 309 311 304 298 298 292 289 290 286 289 293 300 299
313 313 313 314 314 313 313 313 312 312 311 311 312 311 311 312 313 313 313 313 314 314 313 313 310 302 309 308 311 310 308 310 307 307 304 302 297 293 291 288 283 287 288 291 291 296 298
313 312 313 313 313 313 313 312 312 312 311 310 311 311 311 312 312 313 310 309 306 305 309 305 307 306 310 314 314 307 310 308 307 302 293 298 291 288 292 295 295 294 293 292 295 299 296
312 312 312 313 313 313 313 312 312 312 312 311 310 310 311 312 312 313 308 306 307 306 299 310 311 311 314 312 305 308 311 302 300 294 297 293 289 296 299 299 297 294 291 290 295 298 296
312 312 311 311 312 313 312 312 312 312 311 311 310 310 310 311 311 307 306 312 314 311 299 305 309 307 308 306 303 304 307 303 298 294 294 291 295 301 299 297 295 293 291 291 291 296 296
312 312 311 311 312 312 312 312 312 312 311 310 309 310 310 309 308 310 308 316 311 313 293 300 304 305 305 304 301 308 309 303 298 294 296 294 298 298 296 295 296 290 296 295 294 291 285
312 311 311 311 311 312 312 311 311 311 310 309 309 309 309 308 304 305 310 312 310 308 284 303 303 308 305 301 303 304 309 304 296 296 296 293 295 294 294 295 298 293 297 294 294 289 286
311 310 311 311 311 311 311 311 311 311 310 309 309 309 308 308 307 309 314 313 308 293 286 299 302 300 299 301 301 303 304 304 303 297 297 295 300 298 297 301 300 301 297 292 290 286 280
311 311 310 310 310 311 311 310 310 310 309 309 308 307 305 307 306 313 313 307 291 287 304 298 298 300 297 297 299 300 298 296 291 288 289 294 296 299 302 296 300 297 292 282 278 278 279
310 310 310 310 310 310 311 310 309 309 309 308 306 306 307 306 310 312 309 298 285 296 298 304 300 299 294 296 296 298 296 293 297 295 291 289 286 296 302 297 292 292 291 283 276 275 280
310 309 310 310 310 310 311 310 309 308 307 305 305 309 310 313 310 312 301 289 291 297 301 298 298 294 293 297 296 296 295 295 297 298 289 287 289 299 300 300 296 292 289 294 286 287 283
310 309 309 309 309 309 311 310 309 309 307 305 300 304 312 318 319 309 296 292 295 302 301 298 291 294 290 292 292 293 293 298 297 299 297 293 286 296 298 300 298 293 295 286 286 278 277
310 310 309 309 309 309 310 310 309 308 306 305 301 304 315 317 315 302 291 295 300 303 301 297 293 291 291 290 292 291 294 297 299 297 296 293 290 290 294 291 289 288 287 290 289 286 281
310 310 309 308 309 308 310 310 309 307 304 301 298 296 315 314 298 299 296 302 299 299 302 298 297 294 292 294 292 292 292 295 300 298 291 295 290 284 289 295 296 294 289 290 282 283 285
311 310 309 308 308 308 309 309 308 307 305 298 295 299 313 309 293 294 298 299 300 298 298 297 295 296 296 293 288 293 294 300 299 297 295 295 286 279 282 286 292 289 291 290 289 288 283
311 310 309 308 308 307 309 309 308 307 305 300 296 296 302 304 302 297 295 296 296 301 299 299 296 297 294 291 293 291 291 296 298 298 305 297 287 283 278 283 287 287 290 291 288 281 282
311 310 309 308 306 306 307 309 308 306 305 302 301 297 300 293 294 295 297 297 295 295 297 297 294 293 290 286 289 288 292 294 297 301 296 291 284 287 289 291 290 289 289 289 288 288 284
311 310 309 308 306 305 306 309 307 306 304 302 298 295 296 293 297 295 296 294 294 295 295 292 290 293 292 288 289 287 290 290 289 293 291 291 284 288 286 290 290 288 290 291 291 291 290
310 310 310 308 306 304 305 308 307 305 304 298 301 302 297 294 294 293 293 293 294 295 295 295 292 290 289 292 294 292 292 292 291 289 287 287 285 283 280 288 288 282 287 291 290 292 291
310 310 310 308 305 304 304 307 307 305 302 299 298 299 294 289 293 293 295 295 293 294 291 294 294 291 295 298 296 294 292 292 292 291 292 286 285 283 280 284 276 287 296 296 294 295 295
311 310 310 309 306 304 304 304 305 305 303 299 299 296 294 289 293 293 293 292 294 295 292 292 295 297 298 294 288 287 288 289 293 294 292 291 287 281 276 276 285 289 294 293 290 291 297
311 311 310 309 306 304 304 304 305 306 303 299 298 300 295 289 290 295 291 293 289 289 290 294 300 300 296 291 289 283 280 289 288 291 296 294 292 283 280 276 273 288 296 298 297 284 296
310 310 310 309 306 305 304 305 305 306 304 301 298 299 295 288 293 295 290 289 292 291 288 293 295 295 297 288 284 282 283 292 285 286 288 287 287 283 283 279 285 294 298 298 284 286 295
310 310 310 310 306 305 305 305 305 306 305 300 298 300 296 291 293 296 296 292 293 292 288 292 292 295 292 287 288 288 284 286 284 289 288 286 285 284 285 283 281 296 295 287 292 295 294
309 309 309 309 307 306 305 305 305 306 306 302 295 303 303 294 293 297 297 298 297 295 292 294 292 294 294 288 290 289 284 286 285 279 293 285 289 286 287 284 295 294 294 297 296 293 294
Wind_Speed
19 20 20 20 21 20 19 19 19 20 20 19 18 18 18 17 18 17 16 17 16 16 15 13 12 11 7 3 10 7 9 7 5 4 7 11 7 7 8 7 10 9 10 16 17 21 21
20 20 21 21 21 20 21 21 20 19 20 19 19 19 18 17 17 17 16 15 16 16 15 13 10 10 4 6 3 14 11 7 9 9 11 12 6 6 3 5 6 7 11 12 11 12 11
20 20 21 21 20 21 22 23 22 21 19 20 21 19 18 17 17 16 16 15 15 15 14 11 7 6 4 15 5 11 11 9 10 12 6 7 8 6 9 10 8 10 11 12 12 7 7
20 20 20 21 21 21 24 24 24 23 21 20 19 20 19 18 16 15 16 14 14 16 13 9 4 4 9 8 13 11 10 8 10 6 5 9 7 6 5 8 11 8 8 6 7 9 12
19 20 20 21 22 21 23 23 24 24 23 22 20 19 20 20 17 16 14 14 16 13 6 5 3 4 8 6 9 9 7 9 9 8 6 9 2 3 8 6 6 5 9 11 17 14 16
18 20 21 21 21 22 23 23 22 23 24 24 22 20 19 20 18 16 15 16 8 3 4 8 8 5 8 5 8 7 7 7 8 7 5 6 4 5 4 3 6 8 9 9 13 16 13
17 17 20 21 23 22 22 23 23 24 24 25 24 22 20 19 18 13 10 1 0 1 6 10 9 6 13 6 5 5 6 11 5 5 5 9 3 7 13 14 15 16 15 16 17 13 7
18 18 18 20 22 21 22 23 24 24 24 25 25 24 22 20 17 10 5 4 5 8 11 15 20 20 21 14 4 7 7 6 7 8 10 6 10 14 15 17 14 13 13 17 14 11 12
17 18 18 19 20 20 21 23 24 24 25 25 24 23 23 21 19 1 6 11 12 8 5 14 14 14 15 8 11 11 11 9 9 8 9 8 10 16 17 12 13 11 8 10 12 10 15
15 18 19 18 18 19 21 23 24 25 25 25 25 24 22 26 3 5 10 13 5 6 4 8 6 6 5 7 6 15 12 10 8 13 12 10 11 15 15 12 14 16 7 12 16 13 6
16 16 18 18 18 19 20 23 24 25 25 26 24 25 24 11 8 5 8 6 6 5 5 9 7 5 8 9 7 10 13 7 9 11 7 13 13 14 15 15 17 14 10 11 15 7 4
17 17 16 17 19 19 19 21 24 25 26 27 25 23 21 5 4 11 13 8 5 1 7 7 8 9 8 12 13 10 9 7 8 8 10 13 14 13 11 13 11 18 22 8 6 2 4
15 17 16 17 19 20 20 21 24 26 27 29 30 27 8 6 6 7 10 5 2 4 8 4 1 0 3 7 9 12 14 11 9 7 12 18 18 5 10 6 10 12 9 7 8 4 11
14 16 16 16 18 20 21 21 24 27 29 32 32 30 6 8 6 7 4 3 4 10 14 7 9 13 10 13 14 16 12 10 5 6 10 6 8 8 5 4 4 1 7 5 7 3 6
14 13 16 17 17 18 21 21 24 28 29 34 26 3 3 5 11 4 3 3 5 6 16 10 9 8 8 16 11 12 12 6 6 8 5 5 7 12 4 8 4 5 6 14 9 5 6
13 14 15 15 16 18 19 22 21 26 31 32 7 4 5 7 8 3 2 6 6 11 12 11 6 8 12 13 14 13 9 7 6 8 7 7 6 3 7 5 8 4 3 3 2 4 5
11 12 13 13 14 16 18 21 22 24 30 27 1 5 3 7 5 1 4 6 13 15 12 2 6 12 12 13 12 14 11 14 8 5 5 3 4 2 5 4 6 1 2 2 4 3 4
12 11 11 12 12 14 15 17 20 21 29 9 5 4 4 4 1 4 4 9 13 17 14 11 6 6 9 9 8 11 14 10 14 0 3 3 4 3 7 10 12 6 4 6 3 3 5
12 13 11 11 10 11 14 15 19 16 17 7 6 5 5 4 4 5 9 12 12 13 15 12 4 9 9 7 7 5 13 13 12 5 3 6 3 4 7 5 2 3 4 5 4 4 5
13 13 11 11 10 10 12 14 17 19 15 4 5 5 5 2 4 8 9 9 11 12 15 10 5 4 7 9 10 7 11 13 12 10 9 6 3 5 7 11 8 2 8 9 8 4 6
13 13 11 10 9 10 12 13 15 18 20 2 3 5 4 6 9 16 12 10 11 16 8 11 7 11 12 9 12 11 13 13 11 8 6 6 5 7 10 14 15 15 17 17 11 15 8
13 13 11 9 8 8 10 10 12 18 22 1 4 5 7 11 9 12 11 8 11 16 14 8 7 9 9 7 8 10 9 6 4 7 6 6 4 6 8 11 15 18 16 16 15 17 11
13 13 12 9 7 7 9 10 11 14 11 3 5 5 5 5 7 9 7 13 14 16 9 17 14 8 10 12 9 7 6 6 7 6 5 4 3 4 7 9 15 10 7 10 5 4 2
14 14 13 10 9 5 7 9 6 6 6 1 2 3 3 5 6 9 15 15 13 16 19 17 13 8 4 8 7 9 10 13 11 10 8 5 4 1 5 6 4 6 13 7 9 8 9
15 14 14 12 10 7 7 8 10 2 3 1 1 2 2 4 7 13 11 12 11 15 14 15 14 3 4 4 4 6 5 2 4 9 8 9 3 2 1 3 11 8 7 11 4 3 11
16 15 15 14 13 11 8 10 10 8 5 2 2 2 1 3 5 7 11 5 7 9 10 8 5 4 3 2 3 4 4 5 1 3 2 6 8 5 2 3 4 7 13 14 7 5 17
14 15 15 15 16 14 10 12 10 11 9 3 2 1 1 3 8 6 4 5 3 9 6 6 10 5 3 2 2 3 3 7 2 4 0 2 2 5 5 6 6 12 12 12 3 7 17
12 14 15 15 18 16 12 11 11 10 10 4 2 2 2 3 9 9 7 7 6 8 5 7 7 6 4 2 2 3 2 4 4 5 1 4 3 3 4 4 3 11 6 7 6 7 12
12 12 13 14 18 16 13 11 10 9 11 7 1 1 1 5 6 11 18 19 17 17 5 4 5 3 3 3 4 4 3 3 3 3 6 3 4 3 3 5 5 5 7 4 7 12 12
Wind_Direction
359 358 358 357 353 348 348 347 343 341 339 337 335 331 328 324 319 316 313 311 309 306 306 309 316 325 328 232 250 146 164 172 163 177 227 244 219 225 227 235 250 254 254 247 247 243 253
359 359 356 353 351 348 347 346 347 346 339 336 332 331 327 322 317 313 310 307 305 303 302 304 309 312 231 256 165 155 173 170 232 209 246 233 275 280 270 285 267 261 269 266 267 259 253
1 360 356 351 349 349 348 347 347 346 343 338 337 331 327 321 318 314 309 306 302 299 294 293 301 289 260 244 149 177 198 196 222 235 292 306 317 24 335 324 282 305 300 298 283 276 277
357 357 356 354 351 348 348 347 346 345 343 341 338 335 328 324 319 314 311 307 301 296 287 274 270 278 255 263 242 229 219 217 242 267 275 299 325 331 307 295 312 312 309 297 286 293 270
354 355 352 352 352 350 348 346 345 344 343 341 340 336 331 327 318 313 310 301 300 294 259 203 217 225 260 284 216 224 213 245 238 218 219 264 318 295 313 298 305 277 260 269 279 246 254
355 353 353 352 351 350 348 346 345 342 342 342 340 338 333 329 323 317 309 288 285 328 201 188 256 270 260 240 210 215 243 236 267 285 230 230 231 229 272 216 250 263 267 255 250 266 260
351 354 352 351 351 348 346 346 344 342 340 341 341 339 336 334 331 323 329 338 40 204 245 211 189 239 296 257 117 195 232 217 239 303 266 276 233 231 240 233 235 246 263 274 280 289 319
345 349 351 349 349 347 346 344 342 341 339 338 339 339 337 332 330 323 290 262 317 243 290 230 236 239 254 270 259 236 218 237 188 225 247 269 243 245 252 258 257 261 272 287 293 315 313
341 344 346 348 345 344 347 344 340 339 337 336 335 335 335 329 317 273 225 263 300 29 296 289 233 234 226 202 246 249 189 217 228 253 263 251 264 280 277 276 288 267 255 288 280 281 281
341 340 343 342 342 344 345 344 341 337 336 334 332 331 333 328 316 294 269 254 303 41 299 262 165 205 202 144 258 222 248 192 216 238 251 251 268 279 287 296 291 287 286 295 288 288 258
337 341 340 339 340 343 343 342 341 336 332 330 329 327 325 321 302 300 283 355 20 48 314 146 152 127 162 167 308 190 208 235 248 253 262 270 287 292 297 295 300 285 248 259 273 277 350
332 335 337 337 337 339 340 340 340 336 331 327 323 323 324 316 211 246 291 325 11 319 254 191 142 188 192 203 223 244 178 194 216 242 248 260 271 273 289 332 354 329 337 270 264 208 275
328 328 333 337 337 335 337 340 342 337 332 327 323 315 299 291 232 319 318 345 342 222 301 66 61 34 298 309 275 240 225 208 200 225 237 237 240 294 349 334 322 354 355 330 285 262 245
322 327 329 334 338 335 336 339 344 338 333 328 325 313 205 214 236 278 1 347 251 278 301 8 2 343 319 291 285 280 263 259 275 312 322 297 315 279 155 198 179 289 153 179 276 245 286
317 324 325 333 336 336 333 339 346 341 337 327 319 310 238 239 225 249 59 269 249 280 321 337 348 302 313 329 340 350 350 293 339 7 341 356 293 323 234 107 230 216 168 205 238 260 281
311 316 322 329 333 335 335 335 346 348 340 330 324 291 250 194 191 82 149 244 279 283 336 4 345 313 315 330 331 333 315 323 4 48 59 337 323 304 346 171 230 212 34 343 113 226 235
300 307 313 322 331 334 336 335 343 357 345 328 291 317 222 131 92 129 221 248 278 324 339 298 302 303 297 304 301 294 293 317 4 15 357 126 98 336 347 236 293 260 28 355 303 187 249
289 294 301 313 325 329 336 337 341 14 351 19 322 311 219 108 156 215 236 279 330 339 325 345 309 275 290 309 310 319 308 309 319 288 328 77 142 243 230 281 50 46 151 146 156 335 293
289 289 292 299 314 331 335 345 342 22 30 318 306 266 250 136 258 286 305 331 344 323 341 320 278 319 329 330 328 293 298 300 309 279 152 162 262 331 327 294 358 124 218 175 174 176 231
279 281 288 295 311 333 337 348 341 353 18 337 293 301 348 303 296 6 343 319 316 324 302 320 318 339 321 300 294 285 319 312 308 342 124 109 200 212 242 256 265 221 234 216 165 161 220
270 272 273 286 303 324 336 345 346 357 354 322 246 293 353 312 331 322 310 294 327 315 4 6 355 341 325 313 311 312 312 321 332 138 155 143 219 265 287 298 297 294 289 285 238 226 223
258 263 266 269 286 315 327 339 354 6 339 143 300 339 344 302 298 323 310 334 341 330 336 326 300 304 305 285 285 304 331 339 298 335 354 332 293 302 292 313 299 290 289 283 278 280 289
253 255 255 254 257 290 322 329 9 15 354 359 341 330 322 304 312 291 315 335 326 319 329 332 320 324 309 301 320 308 287 264 245 282 295 291 320 340 282 311 324 308 303 320 267 321 134
249 250 250 241 233 258 305 328 350 39 50 159 280 288 285 277 289 296 312 307 322 326 306 297 282 259 328 0 340 309 266 254 250 245 218 245 278 271 288 329 246 252 15 25 8 333 39
250 246 244 234 215 219 262 299 312 220 117 183 300 307 312 279 326 301 322 326 330 293 303 310 302 103 43 353 303 286 294 80 335 228 224 194 155 34 215 263 285 295 16 8 13 11 30
257 250 240 227 206 213 236 271 286 304 166 162 236 239 238 301 255 320 330 319 321 322 306 322 348 87 81 275 260 264 275 292 182 265 81 57 112 129 298 269 257 35 1 338 285 247 0
261 255 247 227 206 209 229 263 274 304 186 168 240 281 210 253 265 305 289 310 293 283 286 290 340 335 140 274 295 259 274 340 353 159 109 45 41 214 213 242 278 9 352 319 22 317 346
271 262 252 233 210 211 224 252 271 289 192 179 221 179 251 250 282 262 289 288 273 280 274 333 324 9 319 291 323 330 342 333 340 327 26 165 209 210 232 236 286 5 19 359 269 305 322
272 268 261 236 208 209 216 243 261 288 196 189 229 200 266 236 271 305 280 261 244 241 288 285 301 314 320 357 7 333 341 331 348 292 342 90 168 212 229 256 87 13 292 335 328 326 319